Terug naar catalogus

SL-16 DEB

ActiefLEO
NORAD 22805·DEBRIS·🇷🇺 Russia

Gelanceerd Sep 16, 1993 vanaf Baikonur Cosmodrome

Loading…

Volgende Passages (komende 24 uur)

TLE

VersSource: Space-Track

Epoch: Sep 14, 2026, 09:09 UTC

1 22805U 93059D   26257.38192678  .00000026  00000-0  65033-4 0  9998
2 22805  70.9721  54.1217 0210465  77.2957 305.7041 13.70752251649585

Volg SL-16 DEB in realtime met AllMySat

Download on the App Store